| time (UTC) | temp F | wind direction | speed MPH | gust MPH | rain 1hr in | rain 24hr in | rain mn in | humidity % | barometer mb |
| 20260507012508 | 53 | 309 | 4.0 | 8.0 | 0.00 | 0.20 | 0.19 | 61 | 1018.9 |
| 20260507012008 | 53 | 296 | 3.0 | 8.0 | 0.00 | 0.20 | 0.19 | 60 | 1018.8 |
| 20260507011522 | 53 | 306 | 4.0 | 8.0 | 0.00 | 0.20 | 0.19 | 60 | 1018.7 |
| 20260507011008 | 53 | 317 | 3.0 | 5.0 | 0.00 | 0.20 | 0.19 | 60 | 1018.5 |
| 20260507010511 | 54 | 303 | 4.0 | 5.0 | 0.00 | 0.20 | 0.19 | 59 | 1018.5 |
| 20260507010032 | 54 | 323 | 3.0 | 5.0 | 0.00 | 0.20 | 0.19 | 59 | 1018.5 |
| 20260507005508 | 54 | 309 | 2.0 | 5.0 | 0.00 | 0.20 | 0.19 | 59 | 1018.4 |
| 20260507005008 | 54 | 296 | 3.0 | 5.0 | 0.00 | 0.20 | 0.19 | 58 | 1018.5 |
| 20260507004527 | 54 | 303 | 2.0 | 7.0 | 0.00 | 0.20 | 0.19 | 57 | 1018.4 |
| 20260507004007 | 54 | 311 | 4.0 | 8.0 | 0.00 | 0.20 | 0.19 | 57 | 1018.4 |
| 20260507003507 | 54 | 320 | 4.0 | 8.0 | 0.00 | 0.20 | 0.19 | 58 | 1018.4 |
| 20260507003018 | 54 | 306 | 4.0 | 8.0 | 0.00 | 0.20 | 0.19 | 58 | 1018.3 |
| 20260507002508 | 54 | 300 | 4.0 | 8.0 | 0.00 | 0.20 | 0.19 | 57 | 1018.3 |
| 20260507002008 | 54 | 269 | 3.0 | 8.0 | 0.00 | 0.20 | 0.19 | 56 | 1018.3 |
| 20260507001529 | 55 | 325 | 3.0 | 8.0 | 0.00 | 0.20 | 0.19 | 55 | 1018.3 |
| 20260507001010 | 55 | 335 | 4.0 | 8.0 | 0.00 | 0.20 | 0.19 | 55 | 1018.4 |
| 20260507000512 | 55 | 312 | 2.0 | 10.0 | 0.00 | 0.20 | 0.19 | 55 | 1018.5 |
| 20260507000029 | 55 | 295 | 5.0 | 10.0 | 0.00 | 0.20 | 0.19 | 54 | 1018.5 |
| 20260506235507 | 55 | 311 | 4.0 | 9.0 | 0.00 | 0.20 | 0.19 | 53 | 1018.5 |
| 20260506235012 | 55 | 267 | 6.0 | 11.0 | 0.00 | 0.20 | 0.19 | 55 | 1018.2 |
| 20260506234534 | 56 | 325 | 7.0 | 11.0 | 0.00 | 0.20 | 0.19 | 55 | 1018.2 |
| 20260506234010 | 56 | 10 | 6.0 | 10.0 | 0.00 | 0.20 | 0.19 | 56 | 1018.3 |
| 20260506233509 | 55 | 299 | 2.0 | 5.0 | 0.00 | 0.20 | 0.19 | 55 | 1018.3 |
| 20260506233024 | 55 | 320 | 3.0 | 5.0 | 0.00 | 0.20 | 0.19 | 54 | 1018.3 |
| 20260506232502 | 55 | 320 | 3.0 | 5.0 | 0.00 | 0.20 | 0.19 | 54 | 1018.4 |
| 20260506232002 | 55 | 33 | 1.0 | 5.0 | 0.00 | 0.20 | 0.19 | 55 | 1018.3 |
| 20260506231503 | 55 | 345 | 2.0 | 6.0 | 0.00 | 0.20 | 0.19 | 56 | 1018.2 |
| 20260506231002 | 55 | 318 | 4.0 | 6.0 | 0.00 | 0.20 | 0.19 | 55 | 1018.2 |
| 20260506230501 | 55 | 328 | 4.0 | 7.0 | 0.00 | 0.20 | 0.19 | 54 | 1018.3 |
| 20260506230004 | 55 | 292 | 4.0 | 8.0 | 0.00 | 0.20 | 0.19 | 55 | 1018.5 |
| 20260506225503 | 55 | 291 | 6.0 | 8.0 | 0.00 | 0.20 | 0.19 | 53 | 1018.6 |
| 20260506225003 | 55 | 288 | 5.0 | 9.0 | 0.00 | 0.20 | 0.19 | 55 | 1018.3 |
| 20260506224516 | 55 | 286 | 5.0 | 10.0 | 0.00 | 0.20 | 0.19 | 54 | 1018.4 |
| 20260506224004 | 56 | 323 | 6.0 | 10.0 | 0.00 | 0.20 | 0.19 | 55 | 1018.3 |
| 20260506223503 | 56 | 350 | 3.0 | 9.0 | 0.00 | 0.20 | 0.19 | 54 | 1018.3 |
| 20260506223003 | 56 | 348 | 5.0 | 9.0 | 0.00 | 0.20 | 0.19 | 54 | 1018.2 |
| 20260506222504 | 56 | 307 | 4.0 | 8.0 | 0.00 | 0.20 | 0.19 | 54 | 1018.2 |
| 20260506222003 | 57 | 320 | 3.0 | 8.0 | 0.00 | 0.20 | 0.19 | 52 | 1018.3 |
| 20260506221504 | 57 | 297 | 2.0 | 10.0 | 0.00 | 0.20 | 0.19 | 52 | 1018.2 |
| 20260506221004 | 58 | 314 | 4.0 | 10.0 | 0.00 | 0.20 | 0.19 | 52 | 1018.2 |
| 20260506220503 | 58 | 302 | 5.0 | 11.0 | 0.00 | 0.20 | 0.19 | 51 | 1018.3 |
| 20260506220004 | 59 | 285 | 4.0 | 11.0 | 0.00 | 0.20 | 0.19 | 52 | 1018.4 |
| 20260506215502 | 59 | 302 | 2.0 | 14.0 | 0.00 | 0.20 | 0.19 | 50 | 1018.3 |
| 20260506215002 | 59 | 329 | 8.0 | 14.0 | 0.00 | 0.20 | 0.19 | 51 | 1018.4 |
| 20260506214503 | 59 | 319 | 6.0 | 11.0 | 0.00 | 0.20 | 0.19 | 52 | 1018.3 |
| 20260506214003 | 58 | 298 | 7.0 | 11.0 | 0.00 | 0.20 | 0.19 | 53 | 1018.5 |
| 20260506213504 | 57 | 199 | 4.0 | 8.0 | 0.00 | 0.20 | 0.19 | 55 | 1018.4 |
| 20260506213003 | 57 | 333 | 2.0 | 5.0 | 0.00 | 0.20 | 0.19 | 51 | 1018.5 |
| 20260506212503 | 57 | 92 | 2.0 | 5.0 | 0.00 | 0.20 | 0.19 | 53 | 1018.6 |
| 20260506212003 | 57 | 342 | 2.0 | 7.0 | 0.00 | 0.20 | 0.19 | 54 | 1018.6 |
| 20260506211511 | 57 | 322 | 1.0 | 7.0 | 0.00 | 0.20 | 0.19 | 55 | 1018.7 |
| 20260506211006 | 56 | 333 | 3.0 | 9.0 | 0.00 | 0.20 | 0.19 | 53 | 1018.8 |
| 20260506210503 | 56 | 328 | 5.0 | 9.0 | 0.00 | 0.20 | 0.19 | 54 | 1018.9 |
| 20260506210007 | 56 | 288 | 3.0 | 7.0 | 0.00 | 0.20 | 0.19 | 54 | 1018.9 |
| 20260506205502 | 57 | 60 | 2.0 | 8.0 | 0.00 | 0.20 | 0.19 | 54 | 1018.9 |
| 20260506205002 | 57 | 16 | 3.0 | 8.0 | 0.00 | 0.20 | 0.19 | 53 | 1019.0 |
| 20260506204504 | 57 | 329 | 1.0 | 8.0 | 0.00 | 0.20 | 0.19 | 52 | 1018.9 |
| 20260506204004 | 57 | 315 | 2.0 | 5.0 | 0.00 | 0.20 | 0.19 | 54 | 1019.0 |
| 20260506203504 | 57 | 240 | 0.0 | 7.0 | 0.00 | 0.20 | 0.19 | 54 | 1019.1 |
| 20260506203003 | 56 | 245 | 3.0 | 7.0 | 0.00 | 0.20 | 0.19 | 56 | 1019.2 |
| 20260506202503 | 56 | 288 | 0.0 | 9.0 | 0.00 | 0.20 | 0.19 | 53 | 1019.2 |
| 20260506202003 | 57 | 302 | 4.0 | 9.0 | 0.00 | 0.20 | 0.19 | 55 | 1019.4 |
| 20260506201503 | 57 | 311 | 6.0 | 10.0 | 0.00 | 0.20 | 0.19 | 56 | 1019.4 |
| 20260506201004 | 56 | 290 | 4.0 | 10.0 | 0.00 | 0.20 | 0.19 | 63 | 1019.5 |
| 20260506200504 | 55 | 307 | 6.0 | 10.0 | 0.00 | 0.20 | 0.19 | 60 | 1019.5 |
| 20260506200007 | 55 | 317 | 2.0 | 7.0 | 0.00 | 0.20 | 0.19 | 59 | 1019.5 |
| 20260506195502 | 55 | 44 | 2.0 | 8.0 | 0.00 | 0.20 | 0.19 | 58 | 1019.5 |
| 20260506195004 | 55 | 12 | 3.0 | 9.0 | 0.00 | 0.20 | 0.19 | 58 | 1019.6 |
| 20260506194504 | 54 | 329 | 5.0 | 9.0 | 0.00 | 0.20 | 0.19 | 60 | 1019.6 |
| 20260506194006 | 54 | 318 | 3.0 | 9.0 | 0.00 | 0.20 | 0.19 | 62 | 1019.9 |
| 20260506193502 | 54 | 198 | 3.0 | 8.0 | 0.00 | 0.20 | 0.19 | 62 | 1019.9 |
| 20260506193005 | 54 | 37 | 2.0 | 5.0 | 0.00 | 0.20 | 0.19 | 59 | 1019.9 |
| 20260506192504 | 54 | 20 | 2.0 | 5.0 | 0.00 | 0.20 | 0.19 | 60 | 1019.9 |
| 20260506192006 | 54 | 94 | 2.0 | 5.0 | 0.00 | 0.20 | 0.19 | 60 | 1019.9 |
| 20260506191507 | 53 | 311 | 1.0 | 5.0 | 0.00 | 0.20 | 0.19 | 61 | 1019.8 |
| 20260506191003 | 54 | 248 | 1.0 | 4.0 | 0.00 | 0.20 | 0.19 | 61 | 1020.0 |
| 20260506190505 | 54 | 319 | 2.0 | 7.0 | 0.00 | 0.20 | 0.19 | 59 | 1020.0 |
| 20260506190006 | 54 | 303 | 2.0 | 7.0 | 0.00 | 0.20 | 0.19 | 61 | 1020.1 |
| 20260506185505 | 53 | 281 | 3.0 | 7.0 | 0.00 | 0.20 | 0.19 | 61 | 1020.1 |
| 20260506185002 | 53 | 296 | 3.0 | 7.0 | 0.00 | 0.20 | 0.19 | 61 | 1020.1 |
| 20260506184507 | 53 | 36 | 3.0 | 5.0 | 0.00 | 0.20 | 0.19 | 61 | 1019.9 |
| 20260506184003 | 53 | 51 | 1.0 | 3.0 | 0.00 | 0.20 | 0.19 | 63 | 1020.0 |
| 20260506183504 | 53 | 52 | 1.0 | 3.0 | 0.00 | 0.20 | 0.19 | 63 | 1020.1 |
| 20260506183007 | 52 | 84 | 1.0 | 2.0 | 0.00 | 0.20 | 0.19 | 63 | 1020.1 |
| 20260506182503 | 52 | 244 | 0.0 | 2.0 | 0.00 | 0.20 | 0.19 | 64 | 1020.1 |
| 20260506182004 | 52 | 171 | 1.0 | 3.0 | 0.00 | 0.20 | 0.19 | 63 | 1020.2 |
| 20260506181506 | 52 | 160 | 1.0 | 3.0 | 0.00 | 0.20 | 0.19 | 64 | 1020.2 |
| 20260506181004 | 52 | 161 | 1.0 | 2.0 | 0.00 | 0.20 | 0.19 | 62 | 1020.3 |
| 20260506180504 | 52 | 138 | 0.0 | 3.0 | 0.00 | 0.20 | 0.19 | 64 | 1020.2 |
| 20260506180010 | 52 | 128 | 1.0 | 5.0 | 0.00 | 0.20 | 0.19 | 62 | 1020.2 |
| 20260506175505 | 52 | 332 | 0.0 | 6.0 | 0.00 | 0.20 | 0.19 | 65 | 1020.2 |
| 20260506175004 | 51 | 46 | 2.0 | 6.0 | 0.00 | 0.20 | 0.19 | 64 | 1020.1 |
| 20260506174510 | 51 | 92 | 1.0 | 3.0 | 0.00 | 0.20 | 0.19 | 68 | 1020.2 |
| 20260506174004 | 51 | 71 | 1.0 | 5.0 | 0.00 | 0.20 | 0.19 | 66 | 1020.2 |
| 20260506173506 | 51 | 74 | 3.0 | 5.0 | 0.00 | 0.20 | 0.19 | 67 | 1020.2 |
| 20260506173008 | 51 | 300 | 1.0 | 3.0 | 0.00 | 0.20 | 0.19 | 69 | 1020.3 |
| 20260506172503 | 51 | 25 | 0.0 | 4.0 | 0.00 | 0.20 | 0.19 | 66 | 1020.4 |
| 20260506172004 | 51 | 109 | 0.0 | 4.0 | 0.00 | 0.20 | 0.19 | 70 | 1020.5 |
| 20260506171509 | 51 | 59 | 1.0 | 4.0 | 0.00 | 0.20 | 0.19 | 71 | 1020.6 |
| 20260506171006 | 51 | 134 | 1.0 | 4.0 | 0.00 | 0.20 | 0.19 | 72 | 1020.7 |
| 20260506170504 | 50 | 28 | 0.0 | 5.0 | 0.00 | 0.20 | 0.19 | 79 | 1020.7 |
| 20260506170008 | 49 | 296 | 3.0 | 5.0 | 0.00 | 0.20 | 0.19 | 78 | 1020.7 |
| 20260506165504 | 49 | 327 | 4.0 | 4.0 | 0.00 | 0.20 | 0.19 | 80 | 1020.7 |
| 20260506165006 | 48 | 349 | 1.0 | 4.0 | 0.00 | 0.20 | 0.19 | 81 | 1020.6 |
| 20260506164515 | 48 | 333 | 1.0 | 4.0 | 0.00 | 0.20 | 0.19 | 78 | 1020.7 |
| 20260506164008 | 48 | 36 | 2.0 | 4.0 | 0.00 | 0.20 | 0.19 | 81 | 1020.6 |
| 20260506163509 | 47 | 37 | 1.0 | 5.0 | 0.00 | 0.20 | 0.19 | 80 | 1020.5 |
| 20260506163012 | 47 | 34 | 2.0 | 5.0 | 0.00 | 0.20 | 0.19 | 82 | 1020.5 |
| 20260506162505 | 47 | 42 | 1.0 | 4.0 | 0.00 | 0.20 | 0.19 | 83 | 1020.4 |
| 20260506162008 | 47 | 17 | 1.0 | 4.0 | 0.00 | 0.20 | 0.19 | 83 | 1020.6 |
| 20260506161510 | 46 | 352 | 2.0 | 4.0 | 0.00 | 0.20 | 0.19 | 83 | 1020.4 |
| 20260506161003 | 46 | 55 | 3.0 | 4.0 | 0.01 | 0.20 | 0.19 | 83 | 1020.4 |
| 20260506160507 | 46 | 350 | 2.0 | 3.0 | 0.01 | 0.20 | 0.19 | 85 | 1020.6 |
| 20260506160019 | 46 | 15 | 1.0 | 3.0 | 0.01 | 0.20 | 0.19 | 84 | 1020.6 |
| 20260506155505 | 46 | 346 | 2.0 | 4.0 | 0.01 | 0.20 | 0.19 | 85 | 1020.6 |
| 20260506155004 | 45 | 42 | 1.0 | 4.0 | 0.01 | 0.20 | 0.19 | 86 | 1020.6 |
| 20260506154516 | 45 | 33 | 1.0 | 4.0 | 0.01 | 0.20 | 0.19 | 87 | 1020.4 |
| 20260506154004 | 45 | 51 | 2.0 | 4.0 | 0.01 | 0.20 | 0.19 | 87 | 1020.4 |
| 20260506153502 | 45 | 54 | 1.0 | 3.0 | 0.01 | 0.20 | 0.19 | 88 | 1020.5 |
| 20260506153014 | 44 | 15 | 1.0 | 4.0 | 0.01 | 0.20 | 0.19 | 88 | 1020.3 |
| 20260506152507 | 44 | 33 | 2.0 | 4.0 | 0.01 | 0.20 | 0.19 | 88 | 1020.4 |
| 20260506152012 | 44 | 40 | 1.0 | 3.0 | 0.01 | 0.20 | 0.19 | 88 | 1020.6 |
| 20260506151515 | 44 | 23 | 1.0 | 4.0 | 0.01 | 0.20 | 0.19 | 89 | 1020.6 |
| 20260506151006 | 44 | 51 | 1.0 | 4.0 | 0.00 | 0.19 | 0.18 | 89 | 1020.5 |
| 20260506150504 | 44 | 33 | 2.0 | 4.0 | 0.00 | 0.19 | 0.18 | 90 | 1020.3 |
| 20260506150013 | 44 | 46 | 0.0 | 4.0 | 0.00 | 0.19 | 0.18 | 90 | 1020.3 |
| 20260506145505 | 44 | 28 | 2.0 | 4.0 | 0.00 | 0.19 | 0.18 | 90 | 1020.3 |
| 20260506145005 | 44 | 344 | 1.0 | 4.0 | 0.00 | 0.19 | 0.18 | 90 | 1020.4 |
| 20260506144515 | 44 | 19 | 2.0 | 5.0 | 0.00 | 0.19 | 0.18 | 89 | 1020.4 |
| 20260506144013 | 44 | 19 | 2.0 | 5.0 | 0.00 | 0.19 | 0.18 | 89 | 1020.5 |
| 20260506143507 | 44 | 325 | 3.0 | 8.0 | 0.00 | 0.19 | 0.18 | 89 | 1020.4 |
| 20260506143013 | 44 | 315 | 5.0 | 8.0 | 0.00 | 0.19 | 0.18 | 89 | 1020.4 |
| 20260506142507 | 44 | 347 | 4.0 | 6.0 | 0.00 | 0.19 | 0.18 | 90 | 1020.3 |
| 20260506142004 | 44 | 34 | 3.0 | 5.0 | 0.00 | 0.19 | 0.18 | 90 | 1020.1 |
| 20260506141508 | 44 | 17 | 2.0 | 5.0 | 0.01 | 0.19 | 0.18 | 90 | 1020.0 |
| 20260506141003 | 44 | 352 | 2.0 | 5.0 | 0.01 | 0.19 | 0.18 | 91 | 1020.0 |
| 20260506140503 | 44 | 14 | 1.0 | 5.0 | 0.01 | 0.19 | 0.18 | 91 | 1020.0 |
| 20260506140015 | 44 | 352 | 2.0 | 5.0 | 0.01 | 0.19 | 0.18 | 91 | 1020.1 |
| 20260506135507 | 44 | 352 | 3.0 | 5.0 | 0.01 | 0.19 | 0.18 | 91 | 1020.2 |
| 20260506135010 | 43 | 345 | 3.0 | 5.0 | 0.01 | 0.19 | 0.18 | 91 | 1020.0 |
| 20260506134521 | 43 | 340 | 3.0 | 4.0 | 0.01 | 0.19 | 0.18 | 91 | 1019.9 |
| 20260506134007 | 43 | 342 | 2.0 | 4.0 | 0.01 | 0.19 | 0.18 | 91 | 1019.8 |
| 20260506133504 | 43 | 345 | 3.0 | 4.0 | 0.01 | 0.19 | 0.18 | 91 | 1019.9 |
| 20260506133004 | 43 | 340 | 2.0 | 4.0 | 0.01 | 0.19 | 0.18 | 91 | 1019.9 |
| 20260506132504 | 43 | 323 | 1.0 | 5.0 | 0.01 | 0.19 | 0.18 | 91 | 1019.9 |
| 20260506132003 | 43 | 341 | 3.0 | 5.0 | 0.01 | 0.19 | 0.18 | 91 | 1019.8 |
| 20260506131529 | 43 | 331 | 3.0 | 5.0 | 0.01 | 0.18 | 0.17 | 91 | 1019.6 |
| 20260506131005 | 43 | 31 | 1.0 | 5.0 | 0.01 | 0.18 | 0.17 | 91 | 1019.3 |
| 20260506130507 | 43 | 352 | 3.0 | 5.0 | 0.01 | 0.18 | 0.17 | 91 | 1019.5 |
| 20260506130025 | 43 | 352 | 2.0 | 5.0 | 0.01 | 0.18 | 0.17 | 91 | 1019.3 |
| 20260506125507 | 43 | 27 | 2.0 | 6.0 | 0.02 | 0.18 | 0.17 | 91 | 1019.0 |
| 20260506125008 | 43 | 351 | 2.0 | 6.0 | 0.02 | 0.18 | 0.17 | 91 | 1018.9 |
| 20260506124520 | 43 | 327 | 3.0 | 6.0 | 0.03 | 0.18 | 0.17 | 91 | 1019.0 |
| 20260506124008 | 43 | 352 | 3.0 | 6.0 | 0.03 | 0.18 | 0.17 | 91 | 1018.8 |
| 20260506123505 | 43 | 337 | 3.0 | 6.0 | 0.03 | 0.18 | 0.17 | 91 | 1018.8 |
| 20260506123005 | 43 | 14 | 3.0 | 6.0 | 0.04 | 0.18 | 0.17 | 91 | 1018.7 |
| 20260506122505 | 43 | 360 | 4.0 | 6.0 | 0.04 | 0.18 | 0.17 | 91 | 1018.6 |
| 20260506122005 | 43 | 329 | 4.0 | 6.0 | 0.04 | 0.18 | 0.17 | 91 | 1018.5 |
| 20260506121509 | 43 | 30 | 4.0 | 6.0 | 0.03 | 0.17 | 0.16 | 92 | 1018.4 |
| 20260506121010 | 43 | 352 | 3.0 | 8.0 | 0.03 | 0.17 | 0.16 | 92 | 1018.5 |
| 20260506120509 | 43 | 341 | 5.0 | 8.0 | 0.03 | 0.17 | 0.16 | 92 | 1018.3 |
| 20260506120021 | 43 | 340 | 2.0 | 5.0 | 0.03 | 0.17 | 0.16 | 92 | 1018.1 |
| 20260506115506 | 43 | 352 | 1.0 | 5.0 | 0.02 | 0.16 | 0.15 | 92 | 1018.2 |
| 20260506115007 | 43 | 342 | 2.0 | 4.0 | 0.02 | 0.16 | 0.15 | 92 | 1018.0 |
| 20260506114523 | 43 | 352 | 2.0 | 4.0 | 0.02 | 0.15 | 0.14 | 92 | 1017.8 |
| 20260506114003 | 43 | 352 | 1.0 | 4.0 | 0.02 | 0.15 | 0.14 | 92 | 1017.6 |
| 20260506113503 | 43 | 335 | 2.0 | 4.0 | 0.02 | 0.15 | 0.14 | 92 | 1017.5 |
| 20260506113006 | 43 | 335 | 1.0 | 5.0 | 0.01 | 0.14 | 0.13 | 92 | 1017.4 |
| 20260506112505 | 43 | 321 | 1.0 | 5.0 | 0.01 | 0.14 | 0.13 | 92 | 1017.6 |
| 20260506112004 | 43 | 360 | 3.0 | 5.0 | 0.01 | 0.14 | 0.13 | 92 | 1017.3 |
| 20260506111515 | 43 | 311 | 3.0 | 4.0 | 0.01 | 0.14 | 0.13 | 92 | 1017.1 |
| 20260506111005 | 43 | 352 | 1.0 | 5.0 | 0.01 | 0.14 | 0.13 | 92 | 1017.1 |
| 20260506110508 | 43 | 320 | 2.0 | 6.0 | 0.01 | 0.14 | 0.13 | 91 | 1017.1 |
| 20260506110020 | 43 | 350 | 2.0 | 6.0 | 0.01 | 0.14 | 0.13 | 91 | 1016.8 |
| 20260506105507 | 43 | 26 | 3.0 | 6.0 | 0.01 | 0.14 | 0.13 | 91 | 1016.6 |
| 20260506105007 | 43 | 30 | 2.0 | 4.0 | 0.02 | 0.14 | 0.13 | 91 | 1016.7 |
| 20260506104521 | 43 | 15 | 2.0 | 4.0 | 0.01 | 0.13 | 0.12 | 91 | 1016.7 |
| 20260506104003 | 43 | 15 | 2.0 | 6.0 | 0.01 | 0.13 | 0.12 | 91 | 1016.8 |
| 20260506103503 | 43 | 360 | 2.0 | 6.0 | 0.02 | 0.13 | 0.12 | 92 | 1016.8 |
| 20260506103014 | 43 | 37 | 3.0 | 6.0 | 0.02 | 0.13 | 0.12 | 91 | 1016.8 |
| 20260506102504 | 44 | 19 | 3.0 | 5.0 | 0.03 | 0.13 | 0.12 | 91 | 1017.0 |
| 20260506102004 | 44 | 324 | 3.0 | 4.0 | 0.03 | 0.13 | 0.12 | 92 | 1016.9 |
| 20260506101516 | 44 | 19 | 1.0 | 3.0 | 0.03 | 0.13 | 0.12 | 92 | 1016.8 |
| 20260506101004 | 43 | 17 | 0.0 | 4.0 | 0.03 | 0.13 | 0.12 | 91 | 1016.7 |
| 20260506100511 | 43 | 342 | 2.0 | 4.0 | 0.03 | 0.13 | 0.12 | 91 | 1016.7 |
| 20260506100027 | 44 | 26 | 1.0 | 4.0 | 0.03 | 0.13 | 0.12 | 91 | 1016.6 |
| 20260506095509 | 44 | 34 | 2.0 | 4.0 | 0.03 | 0.13 | 0.12 | 91 | 1016.8 |
| 20260506095008 | 44 | 32 | 2.0 | 4.0 | 0.02 | 0.12 | 0.11 | 91 | 1016.9 |
| 20260506094530 | 44 | 37 | 2.0 | 5.0 | 0.03 | 0.12 | 0.11 | 91 | 1016.7 |
| 20260506094005 | 44 | 30 | 3.0 | 5.0 | 0.03 | 0.12 | 0.11 | 91 | 1016.6 |
| 20260506093502 | 44 | 53 | 3.0 | 6.0 | 0.02 | 0.11 | 0.10 | 91 | 1016.9 |
| 20260506093013 | 44 | 50 | 2.0 | 6.0 | 0.02 | 0.11 | 0.10 | 91 | 1016.8 |
| 20260506092507 | 44 | 53 | 4.0 | 6.0 | 0.02 | 0.10 | 0.09 | 91 | 1016.8 |
| 20260506092012 | 44 | 42 | 1.0 | 4.0 | 0.02 | 0.10 | 0.09 | 90 | 1016.8 |
| 20260506091520 | 44 | 350 | 2.0 | 5.0 | 0.03 | 0.10 | 0.09 | 90 | 1016.8 |
| 20260506091008 | 44 | 38 | 2.0 | 5.0 | 0.03 | 0.10 | 0.09 | 90 | 1016.7 |
| 20260506090507 | 44 | 10 | 2.0 | 4.0 | 0.03 | 0.10 | 0.09 | 90 | 1016.6 |
| 20260506090023 | 44 | 9 | 1.0 | 7.0 | 0.04 | 0.10 | 0.09 | 90 | 1016.6 |
| 20260506085513 | 44 | 19 | 2.0 | 7.0 | 0.04 | 0.10 | 0.09 | 90 | 1016.6 |
| 20260506085006 | 44 | 337 | 1.0 | 5.0 | 0.04 | 0.10 | 0.09 | 91 | 1016.8 |
| 20260506084508 | 44 | 323 | 2.0 | 5.0 | 0.04 | 0.09 | 0.08 | 90 | 1017.1 |
| 20260506084003 | 44 | 333 | 3.0 | 5.0 | 0.04 | 0.09 | 0.08 | 90 | 1016.9 |
| 20260506083508 | 44 | 26 | 2.0 | 5.0 | 0.04 | 0.09 | 0.08 | 90 | 1016.6 |
| 20260506083015 | 44 | 344 | 2.0 | 4.0 | 0.05 | 0.09 | 0.08 | 90 | 1016.7 |
| 20260506082509 | 44 | 344 | 2.0 | 4.0 | 0.04 | 0.08 | 0.07 | 90 | 1016.6 |
| 20260506082007 | 44 | 9 | 1.0 | 3.0 | 0.05 | 0.08 | 0.07 | 90 | 1016.5 |
| 20260506081519 | 44 | 336 | 0.0 | 2.0 | 0.04 | 0.07 | 0.06 | 90 | 1016.6 |
| 20260506081008 | 44 | 336 | 1.0 | 2.0 | 0.04 | 0.07 | 0.06 | 90 | 1016.7 |
| 20260506080507 | 44 | 259 | 0.0 | 0.0 | 0.04 | 0.07 | 0.06 | 90 | 1016.6 |
| 20260506073506 | 44 | 259 | 0.0 | 3.0 | 0.02 | 0.05 | 0.04 | 90 | 1017.2 |
| 20260506073017 | 44 | 259 | 0.0 | 4.0 | 0.01 | 0.04 | 0.03 | 90 | 1017.4 |
| 20260506072508 | 44 | 255 | 1.0 | 4.0 | 0.01 | 0.04 | 0.03 | 90 | 1017.4 |
| 20260506072008 | 44 | 243 | 1.0 | 4.0 | 0.00 | 0.03 | 0.02 | 90 | 1017.5 |
| 20260506071525 | 44 | 279 | 1.0 | 3.0 | 0.00 | 0.03 | 0.02 | 90 | 1017.3 |
| 20260506071011 | 44 | 275 | 0.0 | 2.0 | 0.00 | 0.03 | 0.02 | 89 | 1017.1 |
| 20260506070512 | 44 | 266 | 1.0 | 2.0 | 0.01 | 0.03 | 0.02 | 89 | 1017.0 |
| 20260506062515 | 45 | 323 | 2.0 | 4.0 | 0.02 | 0.03 | 0.02 | 88 | 1016.1 |
| 20260506062009 | 45 | 348 | 2.0 | 3.0 | 0.02 | 0.03 | 0.02 | 88 | 1015.8 |
| 20260506061524 | 44 | 327 | 0.0 | 0.0 | 0.02 | 0.03 | 0.02 | 88 | 1016.2 |
| 20260506061011 | 44 | 331 | 0.0 | 0.0 | 0.02 | 0.03 | 0.02 | 88 | 1016.2 |
| 20260506060513 | 44 | 352 | 0.0 | 2.0 | 0.01 | 0.02 | 0.01 | 87 | 1016.1 |
| 20260506051010 | 44 | 36 | 1.0 | 4.0 | 0.00 | 0.01 | 0.00 | 84 | 1015.7 |
| 20260506050508 | 44 | 67 | 0.0 | 0.0 | 0.00 | 0.01 | 0.00 | 84 | 1015.8 |
| 20260506045007 | 44 | 67 | 0.0 | 3.0 | 0.00 | 0.01 | 0.01 | 84 | 1015.6 |
| 20260506044513 | 44 | 67 | 1.0 | 4.0 | 0.00 | 0.01 | 0.01 | 84 | 1015.6 |
| 20260506044005 | 44 | 61 | 1.0 | 4.0 | 0.00 | 0.01 | 0.01 | 84 | 1015.3 |
| 20260506043508 | 44 | 74 | 0.0 | 2.0 | 0.00 | 0.01 | 0.01 | 84 | 1015.3 |
| 20260506043023 | 44 | 90 | 0.0 | 3.0 | 0.00 | 0.01 | 0.01 | 83 | 1015.4 |
| 20260506042509 | 44 | 74 | 0.0 | 3.0 | 0.00 | 0.01 | 0.01 | 83 | 1015.3 |
| 20260506042009 | 44 | 73 | 1.0 | 3.0 | 0.00 | 0.01 | 0.01 | 83 | 1015.2 |
| 20260506041526 | 44 | 62 | 1.0 | 3.0 | 0.00 | 0.01 | 0.01 | 83 | 1015.5 |
| 20260506041009 | 44 | 51 | 0.0 | 4.0 | 0.00 | 0.01 | 0.01 | 83 | 1015.5 |
| 20260506040509 | 44 | 51 | 1.0 | 5.0 | 0.00 | 0.01 | 0.01 | 83 | 1015.4 |
| 20260506040012 | 45 | 44 | 3.0 | 6.0 | 0.00 | 0.01 | 0.01 | 83 | 1015.3 |
| 20260506035511 | 45 | 59 | 3.0 | 6.0 | 0.00 | 0.01 | 0.01 | 84 | 1015.4 |
| 20260506035008 | 45 | 63 | 2.0 | 3.0 | 0.00 | 0.01 | 0.01 | 84 | 1015.4 |
| 20260506034518 | 45 | 82 | 0.0 | 3.0 | 0.00 | 0.01 | 0.01 | 84 | 1015.4 |
| 20260506034009 | 45 | 71 | 1.0 | 3.0 | 0.00 | 0.01 | 0.01 | 84 | 1015.4 |
| 20260506033502 | 45 | 78 | 0.0 | 3.0 | 0.00 | 0.01 | 0.01 | 84 | 1015.5 |
| 20260506033003 | 45 | 76 | 0.0 | 4.0 | 0.00 | 0.01 | 0.01 | 84 | 1015.5 |
| 20260506032502 | 45 | 84 | 0.0 | 5.0 | 0.00 | 0.01 | 0.01 | 84 | 1015.5 |
| 20260506032002 | 45 | 63 | 2.0 | 9.0 | 0.00 | 0.01 | 0.01 | 83 | 1015.4 |
| 20260506031506 | 45 | 47 | 5.0 | 9.0 | 0.00 | 0.01 | 0.01 | 83 | 1015.4 |
| 20260506031006 | 45 | 80 | 2.0 | 7.0 | 0.00 | 0.01 | 0.01 | 83 | 1015.4 |
| 20260506030505 | 44 | 38 | 3.0 | 7.0 | 0.00 | 0.01 | 0.01 | 83 | 1015.4 |
| 20260506030026 | 44 | 35 | 3.0 | 7.0 | 0.00 | 0.01 | 0.01 | 84 | 1015.1 |
| 20260506025507 | 44 | 19 | 2.0 | 7.0 | 0.00 | 0.01 | 0.01 | 84 | 1015.2 |
| 20260506025007 | 44 | 52 | 3.0 | 11.0 | 0.00 | 0.01 | 0.01 | 84 | 1015.2 |
| 20260506024534 | 44 | 22 | 5.0 | 11.0 | 0.00 | 0.01 | 0.01 | 83 | 1015.1 |
| 20260506024003 | 44 | 44 | 6.0 | 10.0 | 0.01 | 0.01 | 0.01 | 83 | 1015.0 |
| 20260506023503 | 44 | 45 | 6.0 | 10.0 | 0.01 | 0.01 | 0.01 | 83 | 1015.0 |
| 20260506023003 | 44 | 45 | 4.0 | 10.0 | 0.01 | 0.01 | 0.01 | 83 | 1014.9 |
| 20260506022503 | 44 | 49 | 5.0 | 10.0 | 0.01 | 0.01 | 0.01 | 83 | 1014.9 |
| 20260506022006 | 44 | 36 | 4.0 | 9.0 | 0.01 | 0.01 | 0.01 | 83 | 1014.9 |
| 20260506021509 | 44 | 352 | 3.0 | 9.0 | 0.01 | 0.01 | 0.01 | 83 | 1014.7 |
| 20260506021006 | 44 | 49 | 4.0 | 12.0 | 0.01 | 0.01 | 0.01 | 83 | 1014.8 |
| 20260506020507 | 44 | 13 | 4.0 | 12.0 | 0.01 | 0.01 | 0.01 | 83 | 1014.9 |
| 20260506020017 | 44 | 38 | 3.0 | 10.0 | 0.01 | 0.01 | 0.01 | 83 | 1014.8 |
| 20260506015505 | 45 | 61 | 5.0 | 9.0 | 0.01 | 0.01 | 0.01 | 83 | 1014.9 |
| 20260506015008 | 45 | 49 | 2.0 | 7.0 | 0.01 | 0.01 | 0.01 | 82 | 1014.9 |
| 20260506014528 | 45 | 13 | 2.0 | 7.0 | 0.01 | 0.01 | 0.01 | 82 | 1015.0 |
| 20260506014003 | 45 | 11 | 3.0 | 7.0 | 0.00 | 0.00 | 0.00 | 81 | 1015.0 |
| 20260506013503 | 45 | 5 | 2.0 | 7.0 | 0.00 | 0.00 | 0.00 | 80 | 1014.9 |
| 20260506013007 | 45 | 333 | 5.0 | 8.0 | 0.00 | 0.00 | 0.00 | 79 | 1014.8 |